Location: *
(46.4000°N, 12.6667°E)
Time: 22:44:45
(UTC+00:00)

CZ-4C R/B - Pass Details

Date: 25 June 2021
Orbit: 606 x 1396 km, 63.4° (Epoch: 30 July)

Event Time Altitude Azimuth Distance (km) Brightness Sun altitude
Exits shadow 02:08:13 11° 239° (WSW) 2,121 3.7 -9.6°
Maximum altitude 02:12:55 54° 317° (NW) 971 2.6 -9.1°
Drops below altitude 10° 02:18:52 10° 34° (NE) 2,655 6.4 -8.4°
Sets 02:21:46 0° 39° (NE) 3,740 8.1 -8.1°
